When you browse on this site, cookies collect data to enhance your experience and personalize the content and advertising you see.
Visit our Privacy Policy to learn more. By continuing to use the site, you agree to this use of cookies and data.
  • In Austria
  • List of Countries
  • For 7 days
  • Water Temperature
  • Weather Map
  • News
  • Weather Widgets
  • user-avatar
    Login

    Hourly Weather Berestovka

    Today, 7 June, Sunday

    Time Temperature Precipitation Wind Pressure Humidity
    00:00 +15°C° 0 mm 1 mps 742 mmHg 88%
    01:00 +14°C° 0 mm 1 mps 742 mmHg 88%
    02:00 +14°C° 0 mm 1 mps 742 mmHg 88%
    03:00 +14°C° 0 mm 1 mps 743 mmHg 89%
    04:00 +14°C° 0 mm 1 mps 743 mmHg 89%
    05:00 +15°C° 0 mm 2 mps 743 mmHg 86%
    06:00 +16°C° 0 mm 2 mps 743 mmHg 83%
    07:00 +18°C° 0 mm 3 mps 743 mmHg 79%
    08:00 +19°C° 0.1 mm 3 mps 743 mmHg 74%
    09:00 +20°C° 0.1 mm 3 mps 743 mmHg 68%
    10:00 +22°C° 0.1 mm 4 mps 743 mmHg 63%
    11:00 +21°C° 1 mm 4 mps 743 mmHg 65%
    12:00 +21°C° 1 mm 4 mps 743 mmHg 67%
    13:00 +21°C° 1 mm 5 mps 743 mmHg 69%
    14:00 +20°C° 0.5 mm 4 mps 743 mmHg 75%
    15:00 +19°C° 0.5 mm 3 mps 743 mmHg 81%
    16:00 +17°C° 0.5 mm 2 mps 743 mmHg 87%
    17:00 +17°C° 1.4 mm 2 mps 743 mmHg 89%
    18:00 +17°C° 1.4 mm 2 mps 742 mmHg 92%
    19:00 +16°C° 1.4 mm 2 mps 742 mmHg 94%
    20:00 +16°C° 1.6 mm 2 mps 742 mmHg 94%
    21:00 +16°C° 1.6 mm 3 mps 742 mmHg 94%
    22:00 +16°C° 1.6 mm 3 mps 743 mmHg 95%
    23:00 +16°C° 0.4 mm 3 mps 742 mmHg 95%

    Tomorrow, 8 June, Monday

    Time Temperature Precipitation Wind Pressure Humidity
    00:00 +16°C° 0.4 mm 3 mps 742 mmHg 95%
    01:00 +14°C° 0.4 mm 3 mps 742 mmHg 96%
    02:00 +14°C° 0.5 mm 3 mps 742 mmHg 95%
    03:00 +14°C° 0.5 mm 3 mps 742 mmHg 95%
    04:00 +14°C° 0.5 mm 3 mps 742 mmHg 94%
    05:00 +16°C° 0.8 mm 3 mps 742 mmHg 91%
    06:00 +17°C° 0.8 mm 3 mps 742 mmHg 89%
    07:00 +17°C° 0.8 mm 4 mps 742 mmHg 86%
    08:00 +18°C° 0.7 mm 4 mps 742 mmHg 81%
    09:00 +19°C° 0.7 mm 5 mps 743 mmHg 77%
    10:00 +20°C° 0.7 mm 5 mps 743 mmHg 72%
    11:00 +21°C° 0.3 mm 6 mps 743 mmHg 67%
    12:00 +22°C° 0.3 mm 6 mps 743 mmHg 61%
    13:00 +22°C° 0.3 mm 7 mps 743 mmHg 55%
    14:00 +22°C° 0.2 mm 6 mps 743 mmHg 56%
    15:00 +22°C° 0.2 mm 5 mps 742 mmHg 57%
    16:00 +22°C° 0.2 mm 4 mps 742 mmHg 58%
    17:00 +22°C° 0 mm 4 mps 742 mmHg 61%
    18:00 +22°C° 0 mm 4 mps 742 mmHg 64%
    19:00 +21°C° 0 mm 4 mps 742 mmHg 67%
    20:00 +20°C° 0.3 mm 3 mps 742 mmHg 68%
    21:00 +19°C° 0.3 mm 3 mps 743 mmHg 69%
    22:00 +18°C° 0.3 mm 2 mps 743 mmHg 71%
    23:00 +18°C° 0 mm 3 mps 743 mmHg 70%

    Day after tomorrow, 9 June, Tuesday

    Time Temperature Precipitation Wind Pressure Humidity
    00:00 +18°C° 0 mm 3 mps 743 mmHg 68%
    01:00 +17°C° 0 mm 4 mps 743 mmHg 67%
    02:00 +17°C° 0 mm 4 mps 743 mmHg 64%
    03:00 +16°C° 0 mm 5 mps 743 mmHg 60%
    04:00 +16°C° 0 mm 6 mps 744 mmHg 57%
    05:00 +17°C° 0 mm 6 mps 744 mmHg 58%
    06:00 +17°C° 0 mm 6 mps 744 mmHg 59%
    07:00 +19°C° 0 mm 6 mps 745 mmHg 60%
    08:00 +20°C° 0 mm 6 mps 745 mmHg 57%
    09:00 +22°C° 0 mm 6 mps 746 mmHg 54%
    10:00 +24°C° 0 mm 6 mps 746 mmHg 51%
    11:00 +26°C° 0 mm 6 mps 746 mmHg 47%
    12:00 +27°C° 0 mm 6 mps 746 mmHg 44%
    13:00 +27°C° 0 mm 7 mps 746 mmHg 40%
    14:00 +27°C° 0 mm 6 mps 746 mmHg 42%
    15:00 +27°C° 0 mm 6 mps 746 mmHg 44%
    16:00 +27°C° 0 mm 6 mps 746 mmHg 46%
    17:00 +26°C° 0 mm 6 mps 746 mmHg 50%
    18:00 +25°C° 0 mm 5 mps 746 mmHg 54%
    19:00 +23°C° 0 mm 5 mps 746 mmHg 59%
    20:00 +22°C° 0 mm 5 mps 746 mmHg 58%
    21:00 +21°C° 0 mm 5 mps 746 mmHg 57%
    22:00 +20°C° 0 mm 5 mps 746 mmHg 55%
    23:00 +20°C° 0 mm 5 mps 746 mmHg 56%

    10 June, Wednesday

    Time Temperature Precipitation Wind Pressure Humidity
    00:00 +19°C° 0 mm 5 mps 746 mmHg 57%
    01:00 +19°C° 0 mm 4 mps 746 mmHg 57%
    02:00 +18°C° 0 mm 4 mps 746 mmHg 59%
    03:00 +18°C° 0 mm 4 mps 746 mmHg 60%
    04:00 +18°C° 0 mm 4 mps 746 mmHg 61%
    05:00 +19°C° 0 mm 5 mps 746 mmHg 61%
    06:00 +19°C° 0 mm 5 mps 746 mmHg 61%
    07:00 +20°C° 0 mm 5 mps 747 mmHg 61%
    08:00 +22°C° 0 mm 5 mps 747 mmHg 57%
    09:00 +23°C° 0 mm 6 mps 747 mmHg 53%
    10:00 +26°C° 0 mm 6 mps 747 mmHg 49%
    11:00 +27°C° 0 mm 5 mps 747 mmHg 45%
    12:00 +28°C° 0 mm 5 mps 747 mmHg 42%
    13:00 +29°C° 0 mm 5 mps 747 mmHg 38%
    14:00 +29°C° 0 mm 4 mps 747 mmHg 40%
    15:00 +29°C° 0 mm 4 mps 747 mmHg 43%
    16:00 +28°C° 0 mm 3 mps 747 mmHg 45%
    17:00 +27°C° 0 mm 3 mps 746 mmHg 50%
    18:00 +26°C° 0 mm 3 mps 746 mmHg 54%
    19:00 +25°C° 0 mm 3 mps 746 mmHg 58%
    20:00 +24°C° 0 mm 3 mps 746 mmHg 59%
    21:00 +22°C° 0 mm 3 mps 746 mmHg 61%
    22:00 +21°C° 0 mm 3 mps 746 mmHg 62%
    23:00 +20°C° 0 mm 3 mps 746 mmHg 62%

    11 June, Thursday

    Time Temperature Precipitation Wind Pressure Humidity
    00:00 +20°C° 0 mm 3 mps 746 mmHg 63%
    01:00 +19°C° 0 mm 4 mps 746 mmHg 63%
    02:00 +19°C° 0 mm 3 mps 745 mmHg 63%
    03:00 +19°C° 0 mm 3 mps 745 mmHg 64%
    04:00 +19°C° 0 mm 3 mps 745 mmHg 64%
    05:00 +20°C° 0 mm 3 mps 745 mmHg 64%
    06:00 +20°C° 0 mm 3 mps 745 mmHg 65%
    07:00 +21°C° 0 mm 4 mps 745 mmHg 65%
    08:00 +22°C° 0 mm 4 mps 745 mmHg 62%
    09:00 +25°C° 0 mm 4 mps 745 mmHg 59%
    10:00 +26°C° 0 mm 4 mps 745 mmHg 56%
    11:00 +27°C° 0 mm 4 mps 745 mmHg 53%
    12:00 +28°C° 0 mm 4 mps 745 mmHg 50%
    13:00 +29°C° 0 mm 4 mps 745 mmHg 47%
    14:00 +30°C° 0 mm 4 mps 744 mmHg 45%
    15:00 +30°C° 0 mm 4 mps 744 mmHg 43%
    16:00 +30°C° 0 mm 4 mps 744 mmHg 42%
    17:00 +29°C° 0 mm 3 mps 743 mmHg 46%
    18:00 +29°C° 0 mm 2 mps 743 mmHg 51%
    19:00 +28°C° 0 mm 2 mps 743 mmHg 55%
    20:00 +26°C° 0 mm 2 mps 742 mmHg 56%
    21:00 +24°C° 0 mm 3 mps 742 mmHg 58%
    22:00 +22°C° 0 mm 3 mps 742 mmHg 59%
    23:00 +21°C° 0.1 mm 3 mps 742 mmHg 59%

    12 June, Friday

    Time Temperature Precipitation Wind Pressure Humidity
    00:00 +21°C° 0.1 mm 3 mps 741 mmHg 60%
    01:00 +21°C° 0.1 mm 3 mps 741 mmHg 60%
    02:00 +20°C° 0 mm 3 mps 741 mmHg 61%
    03:00 +19°C° 0 mm 3 mps 741 mmHg 62%
    04:00 +19°C° 0 mm 3 mps 740 mmHg 64%
    05:00 +20°C° 0.2 mm 3 mps 740 mmHg 64%
    06:00 +21°C° 0.2 mm 3 mps 740 mmHg 64%
    07:00 +22°C° 0.2 mm 3 mps 740 mmHg 65%
    08:00 +25°C° 0 mm 3 mps 740 mmHg 59%
    09:00 +27°C° 0 mm 3 mps 740 mmHg 54%
    10:00 +29°C° 0 mm 3 mps 740 mmHg 48%
    11:00 +29°C° 0 mm 3 mps 740 mmHg 46%
    12:00 +30°C° 0 mm 3 mps 740 mmHg 44%
    13:00 +31°C° 0 mm 3 mps 740 mmHg 41%
    14:00 +31°C° 0 mm 3 mps 739 mmHg 41%
    15:00 +31°C° 0 mm 3 mps 739 mmHg 41%
    16:00 +31°C° 0 mm 3 mps 739 mmHg 41%
    17:00 +30°C° 0 mm 3 mps 738 mmHg 46%
    18:00 +30°C° 0 mm 2 mps 738 mmHg 51%
    19:00 +29°C° 0 mm 1 mps 738 mmHg 56%
    20:00 +27°C° 0.1 mm 1 mps 738 mmHg 60%
    21:00 +25°C° 0.1 mm 1 mps 737 mmHg 65%
    22:00 +23°C° 0.1 mm 1 mps 737 mmHg 70%
    23:00 +23°C° 0.9 mm 1 mps 737 mmHg 74%
    Show more